Regional Weather Roundup
Issued by NWS Northern Indiana

Home | Current Version | Previous Version | Graphics & Text | Print | Product List | Glossary On
Versions: 1 2 3 4 5 6 7 8 9 10 11 12 13 14 15 16 17 18 19 20 21 22 23 24 25 26 27 28 29 30 31 32 33 34 35 36 37 38 39 40 41 42 43 44 45 46 47 48 49 50
000
ASUS43 KIWX 111210
RWRIWX

KIWX WEATHER ROUNDUP
NATIONAL WEATHER SERVICE NORTHERN INDIANA
700 AM EST THU FEB 11 2016

NOTE: "FAIR" INDICATES FEW OR NO CLOUDS BELOW 12,000 FEET WITH NO
SIGNIFICANT WEATHER AND/OR OBSTRUCTIONS TO VISIBILITY.

* THESE STATIONS ARE NOT UNDER NWS QUALITY CONTROL. THEY ALSO MAY NOT
  REPORT WEATHER SUCH AS PRECIPITATION OR FOG.

INZ001>027-111300-
NORTHERN INDIANA

CITY           SKY/WX    TMP DP  RH WIND       PRES   REMARKS
GARY*          PTCLDY    12   0  57 W12       30.26R WCI  -2
VALPARAISO     CLOUDY    13   4  67 W10       30.21R WCI   0
6HR MIN TEMP:  10; 6HR MAX TEMP:  14; 6HR PCP: TRACE;

MICHIGAN CITY* FLURRIES  19   9  63 NW9       30.21R WCI   9
LAPORTE*       CLOUDY    19   9  63 NW10      30.19R WCI   8
6HR MIN TEMP:  16; 6HR MAX TEMP:  19;

KNOX*          CLOUDY    12   5  73 W7        30.20R WCI   2
SOUTH BEND     CLOUDY    16   9  74 NW9       30.18R WCI   4
6HR MIN TEMP:   8; 6HR MAX TEMP:  16; 6HR PCP: TRACE;

ELKHART*       FLURRIES  14  10  85 CALM      30.18
GOSHEN         LGT SNOW  13   9  84 NW5       30.18R FOG     WCI   5
6HR MIN TEMP:  10; 6HR MAX TEMP:  15; 6HR PCP: TRACE;

MONTICELLO*    CLEAR      8  -1  66 NW5       30.23R WCI  -1
6HR MIN TEMP:   7; 6HR MAX TEMP:  11;

LOGANSPORT*    CLEAR      7   0  72 W7        30.23R WCI  -5
ROCHESTER*     PTCLDY    12   3  67 W7        30.19R WCI   2
WARSAW*        CLOUDY    14  10  85 W9        30.17R WCI   2
ANGOLA*        CLOUDY    12  10  92 NW3       30.13R
FORT WAYNE     CLOUDY    19   8  62 NW6       30.18R WCI  11
6HR MIN TEMP:  14; 6HR MAX TEMP:  21; 6HR PCP: TRACE;

HUNTINGTON*    PTCLDY     7  -1  70 W6        30.18R WCI  -3
6HR MIN TEMP:   7; 6HR MAX TEMP:  13;

PERU/GRISSOM   CLEAR      6   1  79 W9        30.19R WCI  -8
6HR MIN TEMP:   4; 6HR MAX TEMP:  11;

MARION*        CLEAR      3  -6  66 W6        30.21R WCI  -8
6HR MIN TEMP:  -1; 6HR MAX TEMP:  59;


$$
INZ028>050-111300-
CENTRAL INDIANA

CITY           SKY/WX    TMP DP  RH WIND       PRES   REMARKS
LAFAYETTE      PTCLDY     7   1  76 NW6       30.25R WCI  -3
6HR MIN TEMP:   7; 6HR MAX TEMP:  11;

KOKOMO*        PTCLDY     7   1  78 W8        30.21R WCI  -6
6HR MIN TEMP:   5; 6HR MAX TEMP:  10;

MUNCIE*        CLEAR      9   3  77 W7        30.20R WCI  -2
6HR MIN TEMP:   8; 6HR MAX TEMP:  13;

INDIANAPOLIS   PTCLDY    10   4  76 W6        30.21R WCI   0
6HR MIN TEMP:  10; 6HR MAX TEMP:  14;


$$
MIZ043>046-050>051-056>058-064>065-071>073-077>080-111300-
SOUTHWEST LOWER MICHIGAN

CITY           SKY/WX    TMP DP  RH WIND       PRES   REMARKS
BATTLE CREEK   CLOUDY    11   6  81 W6        30.14R WCI   1
6HR MIN TEMP:   9; 6HR MAX TEMP:  13;

BENTON HARBOR  CLOUDY    18   4  54 NW15G21   30.19R WCI   4
6HR MIN TEMP:  18; 6HR MAX TEMP:  20; 6HR PCP:  0.02;

COLDWATER*     CLOUDY    14   9  81 NW3       30.14R
6HR MIN TEMP:  13; 6HR MAX TEMP:  15;

HILLSDALE*     PTCLDY    12   6  78 NW9       30.11R WCI  -1
6HR MIN TEMP:  11; 6HR MAX TEMP:  13;

HOLLAND        CLOUDY    15   8  73 VRB3      30.18R
6HR MIN TEMP:  14; 6HR MAX TEMP:  16; 6HR PCP:  0.04;

GRAND RAPIDS   MOCLDY    16   6  65 NW9       30.15R WCI   4
6HR MIN TEMP:  14; 6HR MAX TEMP:  16;

KALAMAZOO      CLOUDY    14   6  70 NW6       30.16R WCI   5
6HR MIN TEMP:  13; 6HR MAX TEMP:  14; 6HR PCP: TRACE;

STURGIS*       CLOUDY    13  10  87 CALM      30.15R
6HR MIN TEMP:  12; 6HR MAX TEMP:  14;

THREE RIVERS*  FLURRIES  16  11  83 CALM      30.17R

$$
OHZ001>008-015>018-024>025-111300-
NORTHWEST OHIO

CITY           SKY/WX    TMP DP  RH WIND       PRES   REMARKS
DEFIANCE       CLOUDY    16   9  74 W5        30.17R WCI   9
6HR MIN TEMP:  16; 6HR MAX TEMP:  16;

FINDLAY        CLOUDY    14   9  80 W8        30.15R WCI   3
6HR MIN TEMP:   9; 6HR MAX TEMP:  14;

TOLEDO EXPRESS CLOUDY    14   6  70 W8        30.15R WCI   3
6HR MIN TEMP:  11; 6HR MAX TEMP:  14;

TOLEDO METCALF CLOUDY    15   4  61 W10       30.17R WCI   2
6HR MIN TEMP:  12; 6HR MAX TEMP:  15;

LIMA           CLOUDY    14   9  80 W8        30.15R WCI   3
6HR MIN TEMP:  12; 6HR MAX TEMP:  14;


$$
AND FOR LAKE MICHIGAN COASTAL AND OPEN LAKE BUOY OBSERVATIONS

STATION/POSITION TEMP    WIND        PRES    VSBY  WAVE
                 AIR SEA DIR/SP/G                  HT/PER
                 (F)     (DEG/KT/KT) (MB)    (MI)  (FT/S)
CALUMET HARBOR    11     280/  5/  8 1023.0
MICHIGAN CITY     19     310/ 19/ 23   N/A
BURNS HARBOR      18     320/ 14/ 21 1023.0R
SAINT JOSEPH      19     300/ 16/ 21 1023.4R

$$
&&



USA.gov is the U.S. government's official web portal to all federal, state and local government web resources and services.